STARLINK-36783

Last updated on Mon Mar 23 2026 00:02:07 GMT+0000 (Coordinated Universal Time)

1 67873U 26034Z 26080.91573617 .00426180 00000+0 20449-2 0 9992 2 67873 53.1586 149.8801 0001301 31.0068 329.1032 15.81011889 5877
UTC large
Height (km)
Speed (km/s)
/
Latitude / Longitude
Inclination (degrees)
Orbital Period (minutes)
Azimuth
Elevation
Range (km)
Doppler Factor

Next 0 passes for location: London (51.5072 / 0.1276)

Sorry there are no passes over London.